LGAVLGHI

Guest
Details From LGAV - Athens Intl Airport Elefterios Venizel
To LGHI - Chios
Flight Number -
Tags generated
Created
Modified
Stats Distance 107 nm / 198 km
Max Altitude 9,300 ft / 2,835 m
Waypoints 3
Social Downloads 2
Likes 0
Share

Download

Looking for another format? Having issues loading an existing format? Contact us
Advertisement - Login to hide

Notes

Basic altitude profile: - Ascent Rate: 2500ft/min - Ascent Speed: 250kts - Cruise Altitude: 35000ft - Cruise Speed: 420kts - Descent Rate: 1500ft/min - Descent Speed: 250kts Options: - Use NATs: no - Use PACOTS: no - Use low airways: no - Use high airways: yes

Route

LGAV KRO LGHI

ID Type Via Altitude (ft/m) Position (lat/lon) Dist (leg/tot) Name
O LGAV APT - 0 / 0 37.93636 / 23.94447 - / 0 nm Athens Intl Airport Elefterios Venizel
KRO VOR - 9,300 / 2,835 37.99414 / 24.49492 26 / 26 nm KARISTOS VOR-DME
O LGHI APT - 0 / 0 38.34318 / 26.14058 80 / 106 nm Chios

Altitude Profile

Advertisement - Login to hide

LGAV

Details ICAO LGAV (ATH)
Name Athens "Eleftherios Venizelos"
Region Greece
Timezone Europe/Athens (UTC+3.0)
Stats Elevation 308 ft / 94 m (AMSL)
Location 37.936700° 23.944500°
Runways 2
Magnetic Variation 4.763° E

METAR

LGAV 241920Z 24004KT CAVOK 16/13 Q1016 NOSIG

Decode

TAF

TAF TAF LGAV 241700Z 2418/2518 VRB03KT 9999 FEW025 BECMG 2510/2512 24012KT TEMPO 2512/2516 FEW020 BKN070

Decode

Departure Runways

ID Width Length Bearing (true/mag) Surface Threshold Overrun Markings Lighting
03L 151 ft / 46 m 12,478 ft / 3,803 m 36.86° / 32.09° ASPHALT 984 ft / 300 m 394 ft / 120 m PREC-APP CENTERLINE EDGE THRESHOLD ALSF-II TDZ REIL-OMNI
03R 151 ft / 46 m 13,135 ft / 4,004 m 36.87° / 32.11° ASPHALT 984 ft / 300 m 394 ft / 120 m PREC-APP CENTERLINE EDGE THRESHOLD ALSF-II TDZ REIL-OMNI
21L 151 ft / 46 m 13,135 ft / 4,004 m 216.89° / 212.13° ASPHALT 984 ft / 300 m 394 ft / 120 m PREC-APP CENTERLINE EDGE THRESHOLD ALSF-II TDZ REIL-OMNI
21R 151 ft / 46 m 12,478 ft / 3,803 m 216.87° / 212.11° ASPHALT 984 ft / 300 m 394 ft / 120 m PREC-APP CENTERLINE EDGE THRESHOLD ALSF-II TDZ REIL-OMNI

LGHI

Details ICAO LGHI (JKH)
Name Chios
Region Greece
Timezone Europe/Athens (UTC+3.0)
Stats Elevation 18 ft / 5 m (AMSL)
Location 38.343300° 26.140600°
Runways 1
Magnetic Variation 5.067° E

METAR

LGHI 241850Z VRB01KT CAVOK 16/15 Q1014

Decode

TAF

Not found

Destination Runways

ID Width Length Bearing (true/mag) Surface Threshold Overrun Markings Lighting
01 95 ft / 29 m 5,352 ft / 1,631 m 9.51° / 4.45° ASPHALT 659 ft / 201 m 0 ft / 0 m APP CENTERLINE EDGE THRESHOLD MALSF
19 95 ft / 29 m 5,352 ft / 1,631 m 189.52° / 184.45° ASPHALT 427 ft / 130 m 0 ft / 0 m APP CENTERLINE EDGE THRESHOLD MALSF

Popular Alternatives